Weather History for Montpelier, VT

Change the Weather History Date:

Wednesday, November 21, 2012

  Actual Average Record
Temperature  
Mean Temperature 37 °F 33 °F  
Max Temperature 50 °F 42 °F 64 °F (1953)
Min Temperature 23 °F 25 °F 3 °F (1987)
Degree Days  
Heating Degree Days 28 32  
Month to date heating degree days 643 586  
Since 1 July heating degree days 1454 1542  
Moisture  
Dew Point 25 °F    
Average Humidity 65    
Maximum Humidity 100    
Minimum Humidity 29    
Precipitation  
Precipitation 0.00 in 0.10 in 1.34 in (1954)
Month to date precipitation 0.76 2.24  
Year to date precipitation 30.21 33.60  
Sea Level Pressure  
Sea Level Pressure 30.28 in    
Wind  
Wind Speed 1 mph (South)    
Max Wind Speed 9 mph    
Max Gust Speed 10 mph    
Visibility 9 miles    
Events      
T = Trace of Precipitation, MM = Missing Value Source: NWS Daily Summary

Daily Weather History Graph

Daily Weather History Graph

Search for Another Location

Airport:

Trip Planner

Search our weather history database for the weather conditions in past years. The results will help you decide how hot, cold, wet, or windy it might be!

Date:

Astronomy

Nov. 21, 2012 Rise Set
Actual Time 6:54 AM EST 4:17 PM EST
Civil Twilight 6:22 AM EST 4:49 PM EST
Nautical Twilight 5:46 AM EST 5:25 PM EST
Astronomical Twilight 5:12 AM EST 5:59 PM EST
Moon 12:45 PM EST (11/21) No Moon Set
Length of Visible Light 10h 27m
Length of Day
9h 23m
First Quarter, 61% of the Moon is Illuminated
Nov 21
First Quarter
Nov 28
Full
Dec 6
Last Quarter
Dec 13
New
Dec 20
First Quarter

Hourly Weather History & Observations

Time (EST) Temp. Windchill Dew Point Humidity Pressure Visibility Wind Dir Wind Speed Gust Speed Precip Events Conditions
12:51 AM 30.0 °F - 27.0 °F 88% 30.24 in 10.0 mi Calm Calm - N/A   Overcast
1:51 AM 30.0 °F - 27.0 °F 88% 30.25 in 10.0 mi Calm Calm - N/A   Overcast
2:51 AM 30.0 °F - 28.0 °F 92% 30.25 in 10.0 mi Calm Calm - N/A   Overcast
3:51 AM 30.0 °F - 28.0 °F 92% 30.25 in 10.0 mi Calm Calm - N/A   Overcast
4:51 AM 27.0 °F - 26.1 °F 96% 30.26 in 9.0 mi Calm Calm - N/A   Clear
5:51 AM 26.1 °F - 24.1 °F 92% 30.28 in 8.0 mi Calm Calm - N/A   Clear
6:51 AM 24.1 °F - 21.9 °F 91% 30.31 in 7.0 mi Calm Calm - N/A   Clear
7:51 AM 25.0 °F - 24.1 °F 96% 30.33 in 6.0 mi Calm Calm - N/A   Clear
8:51 AM 30.9 °F - 30.0 °F 96% 30.32 in 7.0 mi Calm Calm - N/A   Overcast
9:51 AM 35.1 °F - 30.0 °F 82% 30.31 in 7.0 mi Calm Calm - N/A   Clear
10:51 AM 39.9 °F - 30.0 °F 68% 30.29 in 8.0 mi Calm Calm - N/A   Clear
11:51 AM 46.4 °F 45.2 °F 28.4 °F 50% 30.23 in 10.0 mi Variable 3.5 mph - N/A   Clear
12:51 PM 50.0 °F - 23.0 °F 35% 30.25 in 10.0 mi SSE 8.1 mph - N/A   Clear
1:51 PM 50.0 °F - 19.9 °F 31% 30.25 in 10.0 mi South 5.8 mph - N/A   Clear
2:51 PM 48.9 °F - 19.9 °F 32% 30.25 in 10.0 mi SSW 5.8 mph - N/A   Clear
3:51 PM 45.0 °F 42.6 °F 21.9 °F 40% 30.26 in 10.0 mi SSW 4.6 mph - N/A   Clear
4:51 PM 37.9 °F 35.5 °F 24.1 °F 57% 30.28 in 10.0 mi SSW 3.5 mph - N/A   Clear
5:51 PM 39.0 °F - 24.1 °F 55% 30.30 in 10.0 mi Calm Calm - N/A   Clear
6:51 PM 33.1 °F - 24.1 °F 70% 30.31 in 10.0 mi Calm Calm - N/A   Clear
7:51 PM 30.9 °F - 23.0 °F 72% 30.31 in 10.0 mi Calm Calm - N/A   Clear
8:51 PM 28.0 °F - 21.9 °F 78% 30.32 in 10.0 mi Calm Calm - N/A   Clear
9:51 PM 27.0 °F - 21.9 °F 81% 30.31 in 10.0 mi Calm Calm - N/A   Clear
10:51 PM 26.1 °F - 21.9 °F 84% 30.31 in 10.0 mi Calm Calm - N/A   Clear
11:51 PM 25.0 °F - 21.9 °F 88% 30.31 in 10.0 mi Calm Calm - N/A   Clear